Flag for Russia

Past Weather in Surgut, Russia — Yesterday and Last 2 Weeks

Now
63 °F

Passing clouds.


Feels Like: 63 °F
Forecast: 62 / 46 °F
Wind: 10 mph from South

Location: Surgut Airport
Current Time: Sep 20, 2020 at 5:21:00 pm
Latest Report: Sep 20, 2020 at 5:00 pm
Visibility: N/A
Pressure29.62 "Hg
Humidity: 56%
Dew Point: 46 °F
Location of SurgutLocation

Past Weather in Surgut — Graph

°F

Surgut Temperature Yesterday

Maximum temperature yesterday: 50 °F (at 1:30 pm)
Minimum temperature yesterday: 37 °F (at 6:00 am)
Average temperature yesterday: 45 °F

High & Low Weather Summary for the Past Weeks

 TemperatureHumidityPressure
High70 °F (Sep 10, 2:00 pm)100% (Sep 5, 10:00 pm)30.24 "Hg (Sep 5, 10:00 pm)
Low37 °F (Sep 8, 4:30 am)38% (Sep 11, 3:30 pm)29.33 "Hg (Sep 16, 1:30 pm)
Average53 °F81%29.84 "Hg
* Reported Sep 5 4:00 pm — Sep 20 4:00 pm, Surgut. Weather by CustomWeather, © 2020

Note: Actual official high and low records may vary slightly from our data, if they occured in-between our weather recording intervals... More about our weather records

Surgut Weather History for the Previous 24 Hours

Scroll right to see more
 ConditionsComfort  
Time TempWeatherWind HumidityBarometerVisibility
4:00 pm
Sun, Sep 20
63 °FSunny.13 mph52%29.62 "Hg10 mi
3:30 pm63 °FSunny.13 mph52%29.62 "Hg10 mi
3:00 pm64 °FSunny.15 mph49%29.62 "Hg10 mi
2:30 pm64 °FSunny.13 mph49%29.62 "Hg10 mi
2:00 pm63 °FSunny.13 mph52%29.62 "Hg10 mi
1:30 pm63 °FPassing clouds.15 mph52%29.62 "HgN/A
1:00 pm61 °FPassing clouds.13 mph55%29.62 "HgN/A
12:30 pm61 °FPassing clouds.10 mph59%29.62 "HgN/A
12:00 pm59 °FPassing clouds.10 mph63%29.62 "HgN/A
11:00 am55 °FSunny.10 mph72%29.65 "Hg10 mi
10:30 am54 °FSunny.10 mph77%29.65 "Hg10 mi
10:00 am52 °FSunny.8 mph82%29.65 "Hg10 mi
9:30 am52 °FPassing clouds.8 mph82%29.65 "HgN/A
9:00 am50 °FSunny.10 mph88%29.65 "Hg10 mi
8:30 am50 °FPassing clouds.8 mph88%29.65 "HgN/A
8:00 am48 °FPassing clouds.8 mph94%29.65 "HgN/A
7:30 am48 °FPassing clouds.8 mph100%29.65 "HgN/A
7:00 am48 °FSunny.8 mph100%29.65 "Hg10 mi
6:30 am46 °FPassing clouds.6 mph100%29.65 "HgN/A
6:00 am48 °FSunny.8 mph100%29.65 "Hg10 mi
5:30 am48 °FClear.8 mph100%29.65 "Hg10 mi
5:00 am48 °FClear.8 mph100%29.65 "Hg10 mi
4:30 am48 °FPassing clouds.6 mph100%29.65 "HgN/A
4:00 am48 °FPassing clouds.6 mph100%29.65 "HgN/A
3:30 am48 °FPassing clouds.3 mph100%29.65 "HgN/A
3:00 am48 °FPassing clouds.3 mph100%29.65 "HgN/A
2:30 am48 °FPassing clouds.3 mph100%29.65 "HgN/A
2:00 am48 °FClear.8 mph100%29.68 "Hg10 mi
1:30 am48 °FClear.8 mph100%29.68 "Hg10 mi
1:00 am48 °FClear.6 mph100%29.68 "Hg10 mi
12:30 am48 °FClear.6 mph100%29.68 "Hg10 mi
12:00 am48 °FClear.6 mph100%29.68 "Hg10 mi
11:30 pm
Sat, Sep 19
48 °FPassing clouds.6 mph100%29.71 "HgN/A
11:00 pm48 °FPassing clouds.8 mph100%29.71 "HgN/A
10:30 pm48 °FPassing clouds.8 mph100%29.71 "HgN/A
10:00 pm48 °FPassing clouds.8 mph100%29.71 "HgN/A
9:30 pm48 °FPartly cloudy.6 mph100%29.71 "HgN/A
9:00 pm48 °FPartly cloudy.6 mph100%29.71 "HgN/A
8:30 pm48 °FLow clouds.6 mph100%29.74 "HgN/A
8:00 pm46 °FLow clouds.10 mph100%29.74 "HgN/A
7:30 pm46 °FLow clouds.10 mph100%29.74 "HgN/A
7:00 pm46 °FOvercast.10 mph93%29.74 "HgN/A
6:00 pm48 °FPartly sunny.10 mph82%29.74 "HgN/A
5:30 pm48 °FScattered clouds.10 mph82%29.74 "HgN/A
5:00 pm48 °FScattered clouds.10 mph82%29.74 "HgN/A
Weather by CustomWeather, © 2020

See weather overview